Location: Unspecified
(0.0000°N, 0.0000°E)
Time: 11:31:33
(UTC+00:00)

Vanguard 1 Rocket - Pass Details

Date: 19 November 2019
Orbit: 650 x 4226 km, 34.3° (Epoch: 07 December)

Event Time Altitude Azimuth Distance (km) Brightness Sun altitude
Rises 19:13:49 0° 226° (SW) 8,391 13.5 -20.8°
Reaches altitude 10° 19:22:00 10° 214° (SW) 7,053 12.6 -22.7°
Maximum altitude 19:39:00 27° 164° (SSE) 4,501 10.9 -26.6°
Enters shadow 19:47:38 16° 121° (ESE) 4,328 10.5 -28.6°
Drops below altitude 10° 19:49:52 10° 111° (ESE) 4,527 - -29.1°
Sets 19:53:30 0° 98° (E) 5,055 - -30.0°
